Mackinac Island, MI

11:47 PM EDT on April 24, 2017 (GMT -0400)
Mackinac Island

Weather History for KMCD - January, 2014

Change the Weather History Date:

Sunday, January 19, 2014

  Actual Average Record
Temperature  
Mean Temperature 20 °F -  
Max Temperature 26 °F 21 °F 37 °F (1988)
Min Temperature 12 °F 9 °F -10 °F (1979)
Degree Days  
Heating Degree Days 46    
Moisture  
Dew Point 18 °F    
Average Humidity 86    
Maximum Humidity 99    
Minimum Humidity 75    
Precipitation  
Precipitation 0.00 in - - ()
Sea Level Pressure  
Sea Level Pressure 29.42 in    
Wind  
Wind Speed 15 mph (WNW)    
Max Wind Speed 26 mph    
Max Gust Speed 37 mph    
Visibility 6 miles    
Events Snow    
Averages and records for this station are not official NWS values.
T = Trace of Precipitation, MM = Missing Value Source: NWS Daily Summary

Daily Weather History Graph

Daily Weather History Graph

Search for Another Location

Airport or City:

Trip Planner

Search our weather history database for the weather conditions in past years. The results will help you decide how hot, cold, wet, or windy it might be!

Date:

Astronomy

Jan. 19, 2014 Rise Set
Actual Time 8:13 AM EST 5:25 PM EST
Civil Twilight 7:40 AM EST 5:58 PM EST
Nautical Twilight 7:03 AM EST 6:35 PM EST
Astronomical Twilight 6:28 AM EST 7:11 PM EST
Moon 9:16 PM EST (1/19) 9:30 AM EST (1/19)
Length of Visible Light 10h 18m
Length of Day
9h 12m
Waning Gibbous, 89% of the Moon is Illuminated
Jan 19
Waning Gibbous
Jan 24
Last Quarter
Jan 30
New
Feb 6
First Quarter
Feb 14
Full

Hourly Weather History & Observations

Time (EST) Temp. Windchill Dew Point Humidity Pressure Visibility Wind Dir Wind Speed Gust Speed Precip Events Conditions
12:15 AM 20.8 °F 10.4 °F 18.1 °F 89% 29.60 in 10.0 mi SSW 9.2 mph 16.1 mph N/A   Overcast
12:34 AM 21.6 °F 13.0 °F 18.9 °F 89% 29.59 in 10.0 mi SSW 6.9 mph - N/A   Overcast
12:55 AM 21.2 °F 10.9 °F 18.9 °F 91% 29.57 in 10.0 mi SW 9.2 mph - N/A Snow Light Snow
1:15 AM 22.5 °F 9.9 °F 20.1 °F 91% 29.56 in 7.0 mi WSW 13.8 mph 21.9 mph N/A   Overcast
1:35 AM 22.1 °F 9.5 °F 19.4 °F 89% 29.55 in 7.0 mi WSW 13.8 mph 24.2 mph N/A   Overcast
1:55 AM 21.2 °F 8.3 °F 18.7 °F 90% 29.53 in 10.0 mi WSW 13.8 mph 25.3 mph N/A   Overcast
2:15 AM 21.4 °F 8.5 °F 18.7 °F 89% 29.52 in 7.0 mi WSW 13.8 mph 23.0 mph N/A   Mostly Cloudy
2:35 AM 21.2 °F 9.5 °F 18.9 °F 91% 29.50 in 10.0 mi SW 11.5 mph 21.9 mph N/A   Overcast
2:55 AM 22.1 °F 8.9 °F 18.7 °F 87% 29.50 in 10.0 mi SW 15.0 mph 25.3 mph N/A   Overcast
3:15 AM 22.5 °F 8.9 °F 18.5 °F 85% 29.48 in 7.0 mi SW 16.1 mph 25.3 mph N/A   Mostly Cloudy
3:35 AM 22.8 °F 8.5 °F 18.3 °F 83% 29.46 in 5.0 mi SW 18.4 mph 29.9 mph N/A   Haze
3:55 AM 23.0 °F 10.1 °F 17.6 °F 80% 29.44 in 7.0 mi SW 15.0 mph 27.6 mph N/A   Scattered Clouds
4:15 AM 23.0 °F 10.1 °F 17.4 °F 79% 29.42 in 10.0 mi SW 15.0 mph 27.6 mph N/A   Scattered Clouds
4:35 AM 23.5 °F 8.3 °F 17.4 °F 77% 29.39 in 7.0 mi SW 21.9 mph 29.9 mph N/A   Mostly Cloudy
4:54 AM 23.5 °F 9.4 °F 18.3 °F 80% 29.38 in 4.0 mi SW 18.4 mph 29.9 mph N/A   Haze
5:15 AM 22.6 °F 9.2 °F 20.8 °F 93% 29.36 in 1.2 mi SW 16.1 mph 27.6 mph N/A Snow Light Snow
5:35 AM 22.8 °F 8.5 °F 21.6 °F 95% 29.35 in 1.0 mi SW 18.4 mph 27.6 mph N/A Snow Snow
5:55 AM 23.5 °F 8.3 °F 22.8 °F 97% 29.33 in 0.8 mi SW 21.9 mph 32.2 mph N/A Snow Snow
6:15 AM 24.8 °F 9.6 °F 24.6 °F 99% 29.33 in 0.5 mi WSW 23.0 mph 34.5 mph N/A Snow Snow
6:35 AM 24.4 °F 9.2 °F 23.7 °F 97% 29.32 in 0.8 mi West 23.0 mph 36.8 mph N/A Snow Snow
6:55 AM 23.9 °F 9.9 °F 23.0 °F 96% 29.32 in 1.0 mi West 18.4 mph 33.4 mph N/A Snow Snow
7:15 AM 23.9 °F 9.5 °F 23.0 °F 96% 29.31 in 0.8 mi West 19.6 mph 32.2 mph N/A Snow Snow
7:35 AM 23.5 °F 8.3 °F 22.8 °F 97% 29.31 in 0.8 mi West 21.9 mph 33.4 mph N/A Snow Snow
7:55 AM 23.4 °F 8.4 °F 22.1 °F 95% 29.31 in 1.5 mi West 20.7 mph 33.4 mph N/A Snow Light Snow
8:15 AM 23.0 °F 8.3 °F 22.1 °F 96% 29.31 in 3.0 mi West 19.6 mph 29.9 mph N/A Snow Light Snow
8:35 AM 23.0 °F 7.6 °F 22.1 °F 96% 29.31 in 2.0 mi West 21.9 mph 32.2 mph N/A Snow Light Snow
8:55 AM 23.0 °F 6.9 °F 22.3 °F 97% 29.30 in 1.8 mi West 24.2 mph 28.8 mph N/A Snow Light Snow
9:15 AM 23.4 °F 7.4 °F 22.6 °F 97% 29.30 in 2.5 mi West 24.2 mph 31.1 mph N/A Snow Light Snow
9:35 AM 23.7 °F 8.5 °F 22.6 °F 96% 29.31 in 4.0 mi West 21.9 mph 32.2 mph N/A Snow Light Snow
9:55 AM 23.9 °F 7.8 °F 22.6 °F 95% 29.31 in 5.0 mi West 25.3 mph 32.2 mph N/A   Overcast
10:14 AM 24.4 °F 9.2 °F 22.6 °F 93% 29.31 in 5.0 mi West 23.0 mph 34.5 mph N/A   Overcast
10:35 AM 24.8 °F 8.7 °F 22.8 °F 92% 29.31 in 7.0 mi West 26.5 mph 34.5 mph N/A   Overcast
10:55 AM 25.0 °F 8.9 °F 22.5 °F 90% 29.31 in 5.0 mi West 26.5 mph 34.5 mph N/A   Mostly Cloudy
11:14 AM 26.4 °F 10.9 °F 23.0 °F 87% 29.32 in 5.0 mi West 26.5 mph 35.7 mph N/A   Mostly Cloudy
11:35 AM 26.4 °F 11.2 °F 23.0 °F 87% 29.32 in 5.0 mi West 25.3 mph 34.5 mph N/A   Overcast
11:55 AM 26.2 °F 11.9 °F 23.0 °F 88% 29.32 in 4.0 mi West 21.9 mph 31.1 mph N/A Snow Light Snow
12:15 PM 26.2 °F 11.9 °F 23.5 °F 90% 29.32 in 4.0 mi West 21.9 mph 31.1 mph N/A Snow Light Snow
12:35 PM 26.2 °F 11.5 °F 23.2 °F 88% 29.33 in 5.0 mi West 23.0 mph 34.5 mph N/A Snow Light Snow
12:55 PM 26.2 °F 12.6 °F 23.0 °F 88% 29.33 in 7.0 mi West 19.6 mph 26.5 mph N/A Snow Light Snow
1:15 PM 26.2 °F 13.8 °F 22.8 °F 87% 29.32 in 7.0 mi WNW 16.1 mph 25.3 mph N/A Snow Light Snow
1:35 PM 26.1 °F 12.3 °F 23.0 °F 88% 29.34 in 3.0 mi West 19.6 mph 29.9 mph N/A Snow Light Snow
1:55 PM 25.7 °F 11.9 °F 22.8 °F 89% 29.35 in 3.0 mi WNW 19.6 mph 27.6 mph N/A Snow Light Snow
2:15 PM 24.8 °F 14.6 °F 21.9 °F 89% 29.35 in 1.5 mi NW 10.4 mph 21.9 mph N/A Snow Light Snow
2:35 PM 23.9 °F 12.9 °F 20.8 °F 88% 29.36 in 1.5 mi NW 11.5 mph 20.7 mph N/A Snow Light Snow
2:54 PM 23.9 °F 12.3 °F 19.9 °F 85% 29.37 in 5.0 mi NW 12.7 mph 19.6 mph N/A Snow Light Snow
3:15 PM 23.0 °F 11.7 °F 16.9 °F 77% 29.38 in 10.0 mi NW 11.5 mph 21.9 mph N/A   Overcast
3:35 PM 23.0 °F 11.1 °F 17.2 °F 79% 29.39 in 10.0 mi NW 12.7 mph 20.7 mph N/A   Overcast
3:54 PM 22.5 °F 11.7 °F 16.3 °F 77% 29.40 in 10.0 mi NNW 10.4 mph 18.4 mph N/A   Overcast
4:15 PM 21.7 °F 9.6 °F 15.8 °F 78% 29.41 in 10.0 mi NNW 12.7 mph 21.9 mph N/A Snow Light Snow
4:34 PM 21.2 °F 7.3 °F 15.6 °F 79% 29.43 in 10.0 mi NNW 16.1 mph 23.0 mph N/A   Overcast
4:55 PM 20.7 °F 8.8 °F 15.8 °F 81% 29.43 in 5.0 mi NNW 11.5 mph 19.6 mph N/A Snow Light Snow
5:15 PM 20.3 °F 7.2 °F 16.0 °F 83% 29.42 in 4.0 mi NNW 13.8 mph 20.7 mph N/A Snow Light Snow
5:34 PM 20.1 °F 7.5 °F 15.1 °F 81% 29.44 in 10.0 mi NNW 12.7 mph 23.0 mph N/A   Overcast
5:55 PM 18.9 °F 4.8 °F 14.2 °F 82% 29.45 in 7.0 mi NNW 15.0 mph 21.9 mph N/A Snow Light Snow
6:15 PM 18.5 °F 4.9 °F 13.1 °F 79% 29.46 in 10.0 mi NNW 13.8 mph 18.4 mph N/A Snow Light Snow
6:34 PM 18.1 °F 5.6 °F 11.8 °F 76% 29.47 in 10.0 mi NNW 11.5 mph 20.7 mph N/A   Overcast
6:55 PM 17.8 °F 6.6 °F 12.0 °F 78% 29.49 in 10.0 mi NW 9.2 mph 16.1 mph N/A   Overcast
7:14 PM 17.6 °F 7.3 °F 12.2 °F 79% 29.49 in 10.0 mi NNW 8.1 mph 16.1 mph N/A   Overcast
7:35 PM 17.2 °F 7.8 °F 12.2 °F 81% 29.49 in 10.0 mi NNW 6.9 mph 16.1 mph N/A   Overcast
7:55 PM 16.7 °F 5.3 °F 11.7 °F 81% 29.49 in 10.0 mi NNW 9.2 mph 18.4 mph N/A   Overcast
8:14 PM 16.5 °F 2.4 °F 10.6 °F 77% 29.50 in 10.0 mi NW 13.8 mph 18.4 mph N/A   Overcast
8:35 PM 16.2 °F 2.5 °F 9.5 °F 75% 29.51 in 10.0 mi NNW 12.7 mph 17.3 mph N/A   Overcast
8:55 PM 15.8 °F 2.1 °F 9.1 °F 75% 29.51 in 10.0 mi NNW 12.7 mph 19.6 mph N/A   Overcast
9:14 PM 15.6 °F 4.0 °F 9.3 °F 76% 29.51 in 10.0 mi NNW 9.2 mph 19.6 mph N/A   Overcast
9:35 PM 15.4 °F 4.6 °F 9.3 °F 77% 29.52 in 10.0 mi NNW 8.1 mph - N/A   Overcast
9:55 PM 15.1 °F 5.2 °F 9.3 °F 78% 29.52 in 10.0 mi NNW 6.9 mph - N/A   Overcast
10:14 PM 14.9 °F 2.3 °F 8.8 °F 77% 29.52 in 10.0 mi NNW 10.4 mph - N/A   Overcast
10:35 PM 14.7 °F 5.9 °F 9.0 °F 78% 29.53 in 10.0 mi NW 5.8 mph - N/A   Overcast
10:55 PM 14.7 °F 7.3 °F 8.6 °F 77% 29.54 in 10.0 mi NW 4.6 mph - N/A   Overcast
11:15 PM 14.4 °F 5.5 °F 8.6 °F 78% 29.54 in 10.0 mi NNW 5.8 mph 17.3 mph N/A   Overcast
11:35 PM 13.8 °F 2.7 °F 8.6 °F 80% 29.55 in 7.0 mi North 8.1 mph - N/A Snow Light Snow
11:54 PM 12.4 °F -0.8 °F 8.2 °F 83% 29.56 in 5.0 mi NNE 10.4 mph - N/A Snow Light Snow